Location: Newark
(49.3000°N, 9.4667°E)
Time: 04:28:23
(UTC+00:00)

Transit 4A - Pass Details

Date: 29 May 2019
Orbit: 862 x 983 km, 66.8° (Epoch: 24 June)

Event Time Altitude Azimuth Distance (km) Brightness Sun altitude
Rises 21:20:46 0° 323° (NW) 3,698 12.9 -14.3°
Reaches altitude 10° 21:23:21 10° 324° (NW) 2,746 11.7 -14.5°
Maximum altitude 21:29:49 88° 236° (SW) 984 8.0 -14.9°
Enters shadow 21:34:08 22° 147° (SSE) 1,975 9.0 -15.2°
